This demonstration page uses our WeatherBlox Daily Observations layout. Learn more.

Left ArrowRight Arrow

Hourly Observations for August 9, 2022

Temp ( °F °C ) Dew Point ( °F °C ) Humidity (%) Winds ( mph kmh ) Pressure ( in mb ) Visibility ( mi km ) Precip ( " mm )
12:52 am 00:52 Clear with Light Rain 71 21.7 69 20.6 93 93 NNW 7 11 30.01 1016 10 16 0.01 0.25
1:52 am 01:52 Partly Cloudy 72 22.2 69 20.6 91 91 Calm 29.99 1016 10 16 0.01 0.13
2:52 am 02:52 Partly Cloudy 71 21.7 69 20.6 93 93 SW 13 20 29.97 1015 10 16 0.01 0.13
3:52 am 03:52 Clear with Light Rain 71 21.7 69 20.6 93 93 SSW 5 7 29.98 1015 10 16 0.01 0.13
4:52 am 04:52 Mostly Cloudy 72 22.2 69 20.6 91 91 N 3 6 29.98 1015 10 16 0.01 0.25
5:52 am 05:52 Clear 71 21.7 70 21.1 96 96 E 6 9 30.02 1017 10 16 0.00 0.00
6:52 am 06:52 Cloudy 71 21.7 70 21.1 96 96 ESE 5 7 30.05 1018 10 16 0.00 0.00
7:52 am 07:52 Cloudy with Light Rain 72 22.2 70 21.1 93 93 Calm 30.06 1018 9 14 0.02 0.51
8:52 am 08:52 Cloudy with Light Rain 72 22.2 70 21.1 93 93 SE 5 7 30.07 1018 4 6 0.04 1.02
9:20 am 09:20 Cloudy with Nearby Thunderstorms 72 22.2 70 21.1 93 93 ESE 5 7 30.06 1018 3 4 0.06 1.52
9:26 am 09:26 Cloudy with Thunderstorms 72 22.2 71 21.7 97 97 Calm 30.06 1018 3 5 0.08 2.03
9:32 am 09:32 Cloudy with Strong Thunderstorms 71 21.7 70 21.1 96 96 ENE 5 7 30.07 1018 2 2 0.09 2.29
9:48 am 09:48 Cloudy with Nearby Thunderstorms 72 22 70 21 94 94 ESE 6 9 30.06 1018 2 3 0.39 9.91
9:52 am 09:52 Cloudy with Nearby Thunderstorms 71 21.7 70 21.1 96 96 SE 5 7 30.08 1019 3 5 0.41 10.41
10:00 am 10:00 Cloudy with Rain 71 21.7 70 21.1 96 96 Calm 30.07 1018 5 8 0.02 0.51
10:37 am 10:37 Cloudy 72 22.2 70 21.1 93 93 NW 6 9 30.07 1018 10 16 0.05 1.27
10:52 am 10:52 Cloudy 72 22.2 71 21.7 97 97 NW 5 7 30.09 1019 9 14 0.05 1.27
11:16 am 11:16 Cloudy 72 22.2 71 21.7 97 97 Calm 30.07 1018 10 16 0.00 0.00
11:39 am 11:39 Partly Cloudy 73 22.8 72 22.2 96 96 NW 3 6 30.07 1018 10 16 0.00 0.00
11:52 am 11:52 Sunny 73 22.8 70 21.1 90 90 W 3 6 30.09 1019 10 16 0.00 0.00
12:52 pm 12:52 Mostly Cloudy 75 23.9 71 21.7 88 88 NW 5 7 30.09 1019 10 16 0.00 0.00
1:52 pm 13:52 Cloudy 76 24.4 71 21.7 85 85 E 3 6 30.07 1018 10 16 0.00 0.00
2:52 pm 14:52 Mostly Cloudy 78 25.6 70 21.1 76 76 Calm 30.05 1018 10 16 0.00 0.00
3:52 pm 15:52 Mostly Sunny 82 27.8 71 21.7 69 69 undefined N/A 30.02 1017 10 16 0.00 0.00
4:52 pm 16:52 Sunny 83 28.3 70 21.1 65 65 W 7 11 30.00 1016 10 16 0.00 0.00
5:52 pm 17:52 Mostly Cloudy 85 29.4 70 21.1 61 61 W 3 6 29.99 1016 10 16 0.00 0.00
6:52 pm 18:52 Sunny 83 28.3 68 20 61 61 Calm 29.98 1015 10 16 0.00 0.00
7:52 pm 19:52 Sunny 81 27.2 69 20.6 67 67 NNE 5 7 29.99 1016 10 16 0.00 0.00
8:52 pm 20:52 Partly Cloudy 79 26.1 72 22.2 79 79 NE 8 13 30.02 1017 10 16 0.00 0.00
9:52 pm 21:52 Mostly Clear 77 25 71 21.7 82 82 NE 8 13 30.05 1018 10 16 0.00 0.00
10:26 pm 22:26 Cloudy with Light Rain 77 25 71 21.7 82 82 Calm 30.04 1017 10 16 0.01 0.13
10:52 pm 22:52 Cloudy with Light Rain 77 25 71 21.7 82 82 ENE 6 9 30.07 1018 10 16 0.01 0.25
11:04 pm 23:04 Cloudy with Light Rain 78 25.6 71 21.7 79 79 VRB 5 7 30.05 1018 10 16 0.01 0.13
11:52 pm 23:52 Mostly Cloudy 77 25 71 21.7 82 82 E 5 7 30.07 1018 10 16 0.01 0.13

Powered by AerisWeather